Time,TemperatureF,DewpointF,PressureIn,WindDirection,WindDirectionDegrees,WindSpeedMPH,WindSpeedGustMPH,Humidity,HourlyPrecipIn,Conditions,Clouds,dailyrainin,SoftwareType,DateUTC
2013-02-04 00:01:00,46.0,-99.9,30.24,ESE,118,6.0,6.0,-999,-99.99,,,-99.99,,2013-02-04 08:01:00,
2013-02-04 00:11:00,46.0,-99.9,30.24,ESE,107,4.0,6.0,-999,-99.99,,,-99.99,,2013-02-04 08:11:00,
2013-02-04 00:21:00,46.0,-99.9,30.24,East,93,2.0,4.0,-999,-99.99,,,-99.99,,2013-02-04 08:21:00,
2013-02-04 00:32:00,46.0,-99.9,30.24,East,87,-999.0,1.0,-999,-99.99,,,-99.99,,2013-02-04 08:32:00,
2013-02-04 00:42:00,46.0,-99.9,30.24,ESE,123,3.0,3.0,-999,-99.99,,,-99.99,,2013-02-04 08:42:00,
2013-02-04 00:52:00,46.0,-99.9,30.24,SE,135,4.0,5.0,-999,-99.99,,,-99.99,,2013-02-04 08:52:00,
2013-02-04 01:02:00,46.0,-99.9,30.25,SSE,160,-999.0,2.0,-999,-99.99,,,-99.99,,2013-02-04 09:02:00,
2013-02-04 01:11:00,46.0,-99.9,30.25,SW,223,0.0,1.0,-999,-99.99,,,-99.99,,2013-02-04 09:11:00,
2013-02-04 01:22:00,46.0,-99.9,30.24,SE,130,1.0,1.0,-999,-99.99,,,-99.99,,2013-02-04 09:22:00,
2013-02-04 01:32:00,46.0,-99.9,30.24,ESE,108,3.0,4.0,-999,-99.99,,,-99.99,,2013-02-04 09:32:00,
2013-02-04 01:42:00,46.0,-99.9,30.23,ESE,109,4.0,5.0,-999,-99.99,,,-99.99,,2013-02-04 09:42:00,
2013-02-04 01:52:00,46.0,-99.9,30.24,ESE,107,0.0,2.0,-999,-99.99,,,-99.99,,2013-02-04 09:52:00,
2013-02-04 02:02:00,46.0,-99.9,30.24,ESE,108,2.0,2.0,-999,-99.99,,,-99.99,,2013-02-04 10:02:00,
2013-02-04 02:12:00,46.0,-99.9,30.24,East,101,2.0,3.0,-999,-99.99,,,-99.99,,2013-02-04 10:12:00,
2013-02-04 02:22:00,46.0,-99.9,30.24,East,87,1.0,4.0,-999,-99.99,,,-99.99,,2013-02-04 10:22:00,
2013-02-04 02:32:00,46.0,-99.9,30.23,ESE,102,3.0,4.0,-999,-99.99,,,-99.99,,2013-02-04 10:32:00,
2013-02-04 02:42:00,46.0,-99.9,30.23,ESE,113,5.0,6.0,-999,-99.99,,,-99.99,,2013-02-04 10:42:00,
2013-02-04 02:52:00,46.0,-99.9,30.23,ESE,117,5.0,5.0,-999,-99.99,,,-99.99,,2013-02-04 10:52:00,
2013-02-04 03:02:00,46.0,-99.9,30.23,East,99,3.0,4.0,-999,-99.99,,,-99.99,,2013-02-04 11:02:00,
2013-02-04 03:11:00,46.0,-99.9,30.22,ESE,106,3.0,4.0,-999,-99.99,,,-99.99,,2013-02-04 11:11:00,
2013-02-04 03:22:00,46.0,-99.9,30.21,ESE,104,5.0,6.0,-999,-99.99,,,-99.99,,2013-02-04 11:22:00,
2013-02-04 03:33:00,46.0,-99.9,30.20,East,101,6.0,8.0,-999,-99.99,,,-99.99,,2013-02-04 11:33:00,
2013-02-04 03:42:00,46.0,-99.9,30.20,ESE,111,6.0,6.0,-999,-99.99,,,-99.99,,2013-02-04 11:42:00,
2013-02-04 03:52:00,46.0,-99.9,30.19,ESE,104,7.0,7.0,-999,-99.99,,,-99.99,,2013-02-04 11:52:00,
2013-02-04 04:03:00,46.0,-99.9,30.19,ESE,102,6.0,7.0,-999,-99.99,,,-99.99,,2013-02-04 12:03:00,
2013-02-04 04:12:00,46.0,-99.9,30.19,East,99,5.0,6.0,-999,-99.99,,,-99.99,,2013-02-04 12:12:00,
2013-02-04 04:22:00,45.0,-99.9,30.19,East,95,3.0,6.0,-999,-99.99,,,-99.99,,2013-02-04 12:22:00,
2013-02-04 04:33:00,45.0,-99.9,30.19,ESE,104,3.0,4.0,-999,-99.99,,,-99.99,,2013-02-04 12:33:00,
2013-02-04 04:42:00,45.0,-99.9,30.19,ESE,108,2.0,3.0,-999,-99.99,,,-99.99,,2013-02-04 12:42:00,
2013-02-04 04:53:00,45.0,-99.9,30.19,East,86,1.0,4.0,-999,-99.99,,,-99.99,,2013-02-04 12:53:00,
2013-02-04 05:03:00,45.0,-99.9,30.19,East,80,-999.0,1.0,-999,-99.99,,,-99.99,,2013-02-04 13:03:00,
2013-02-04 05:12:00,45.0,-99.9,30.19,ESE,102,1.0,2.0,-999,-99.99,,,-99.99,,2013-02-04 13:12:00,
2013-02-04 05:22:00,45.0,-99.9,30.19,East,100,4.0,5.0,-999,-99.99,,,-99.99,,2013-02-04 13:22:00,
2013-02-04 05:33:00,45.0,-99.9,30.19,East,100,4.0,5.0,-999,-99.99,,,-99.99,,2013-02-04 13:33:00,
2013-02-04 05:42:00,45.0,-99.9,30.18,ESE,108,5.0,6.0,-999,-99.99,,,-99.99,,2013-02-04 13:42:00,
2013-02-04 05:52:00,45.0,-99.9,30.19,East,98,4.0,6.0,-999,-99.99,,,-99.99,,2013-02-04 13:52:00,
2013-02-04 06:03:00,45.0,-99.9,30.18,East,100,5.0,6.0,-999,-99.99,,,-99.99,,2013-02-04 14:03:00,
2013-02-04 06:12:00,45.0,-99.9,30.18,ESE,105,6.0,6.0,-999,-99.99,,,-99.99,,2013-02-04 14:12:00,
2013-02-04 06:23:00,45.0,-99.9,30.17,East,100,6.0,7.0,-999,-99.99,,,-99.99,,2013-02-04 14:23:00,
2013-02-04 06:33:00,45.0,-99.9,30.17,ESE,104,6.0,8.0,-999,-99.99,,,-99.99,,2013-02-04 14:33:00,
2013-02-04 06:42:00,45.0,-99.9,30.17,ESE,105,6.0,7.0,-999,-99.99,,,-99.99,,2013-02-04 14:42:00,
2013-02-04 06:53:00,45.0,-99.9,30.17,ESE,120,6.0,6.0,-999,-99.99,,,-99.99,,2013-02-04 14:53:00,
2013-02-04 07:03:00,45.0,-99.9,30.16,ESE,104,7.0,8.0,-999,-99.99,,,-99.99,,2013-02-04 15:03:00,
2013-02-04 07:13:00,44.0,-99.9,30.16,ESE,112,8.0,9.0,-999,-99.99,,,-99.99,,2013-02-04 15:13:00,
2013-02-04 07:24:00,44.0,-99.9,30.16,ESE,114,6.0,8.0,-999,-99.99,,,-99.99,,2013-02-04 15:24:00,
2013-02-04 07:33:00,44.0,-99.9,30.16,ESE,115,5.0,6.0,-999,-99.99,,,-99.99,,2013-02-04 15:33:00,
2013-02-04 07:43:00,44.0,-99.9,30.16,ESE,123,6.0,6.0,-999,-99.99,,,-99.99,,2013-02-04 15:43:00,
2013-02-04 07:53:00,45.0,-99.9,30.16,ESE,116,6.0,7.0,-999,-99.99,,,-99.99,,2013-02-04 15:53:00,
2013-02-04 08:03:00,45.0,-99.9,30.15,ESE,109,7.0,9.0,-999,-99.99,,,-99.99,,2013-02-04 16:03:00,
2013-02-04 08:11:00,44.0,-99.9,30.15,SE,126,5.0,7.0,-999,-99.99,,,-99.99,,2013-02-04 16:11:00,
2013-02-04 08:23:00,44.0,-99.9,30.15,East,87,3.0,5.0,-999,-99.99,,,-99.99,,2013-02-04 16:23:00,
2013-02-04 08:33:00,44.0,-99.9,30.15,East,92,2.0,4.0,-999,-99.99,,,-99.99,,2013-02-04 16:33:00,
2013-02-04 08:43:00,44.0,-99.9,30.14,ESE,103,5.0,6.0,-999,-99.99,,,-99.99,,2013-02-04 16:43:00,
2013-02-04 08:52:00,44.0,-99.9,30.14,ESE,107,5.0,6.0,-999,-99.99,,,-99.99,,2013-02-04 16:52:00,
2013-02-04 09:03:00,44.0,-99.9,30.14,ESE,107,5.0,6.0,-999,-99.99,,,-99.99,,2013-02-04 17:03:00,
2013-02-04 09:21:00,45.0,-99.9,30.15,ESE,103,5.0,7.0,-999,-99.99,,,-99.99,,2013-02-04 17:21:00,
2013-02-04 09:32:00,45.0,-99.9,30.15,ESE,113,6.0,6.0,-999,-99.99,,,-99.99,,2013-02-04 17:32:00,
2013-02-04 09:42:00,45.0,-99.9,30.15,ESE,111,6.0,7.0,-999,-99.99,,,-99.99,,2013-02-04 17:42:00,
2013-02-04 09:52:00,45.0,-99.9,30.15,SE,131,4.0,6.0,-999,-99.99,,,-99.99,,2013-02-04 17:52:00,
2013-02-04 10:03:00,45.0,-99.9,30.15,SE,143,5.0,5.0,-999,-99.99,,,-99.99,,2013-02-04 18:03:00,
2013-02-04 10:12:00,45.0,-99.9,30.15,SE,144,4.0,5.0,-999,-99.99,,,-99.99,,2013-02-04 18:12:00,
2013-02-04 10:22:00,45.0,-99.9,30.15,SSE,149,3.0,4.0,-999,-99.99,,,-99.99,,2013-02-04 18:22:00,
2013-02-04 10:33:00,46.0,-99.9,30.14,SE,141,3.0,3.0,-999,-99.99,,,-99.99,,2013-02-04 18:33:00,
2013-02-04 10:42:00,46.0,-99.9,30.14,SSE,150,2.0,3.0,-999,-99.99,,,-99.99,,2013-02-04 18:42:00,
2013-02-04 10:52:00,46.0,-99.9,30.14,SE,144,2.0,3.0,-999,-99.99,,,-99.99,,2013-02-04 18:52:00,
2013-02-04 11:02:00,47.0,-99.9,30.13,East,92,2.0,3.0,-999,-99.99,,,-99.99,,2013-02-04 19:02:00,
2013-02-04 11:12:00,48.0,-99.9,30.13,NE,56,0.0,2.0,-999,-99.99,,,-99.99,,2013-02-04 19:12:00,
2013-02-04 11:23:00,48.0,-99.9,30.13,ESE,106,2.0,3.0,-999,-99.99,,,-99.99,,2013-02-04 19:23:00,
2013-02-04 11:32:00,49.0,-99.9,30.13,NNE,21,0.0,2.0,-999,-99.99,,,-99.99,,2013-02-04 19:32:00,
2013-02-04 11:42:00,48.0,-99.9,30.13,WSW,251,1.0,2.0,-999,-99.99,,,-99.99,,2013-02-04 19:42:00,
2013-02-04 11:52:00,48.0,-99.9,30.13,NW,305,2.0,4.0,-999,-99.99,,,-99.99,,2013-02-04 19:52:00,
2013-02-04 12:02:00,48.0,-99.9,30.13,West,275,3.0,4.0,-999,-99.99,,,-99.99,,2013-02-04 20:02:00,
2013-02-04 12:12:00,48.0,-99.9,30.13,WNW,285,3.0,4.0,-999,-99.99,,,-99.99,,2013-02-04 20:12:00,
2013-02-04 12:22:00,48.0,-99.9,30.12,West,274,5.0,7.0,-999,-99.99,,,-99.99,,2013-02-04 20:22:00,
2013-02-04 12:32:00,48.0,-99.9,30.12,West,265,5.0,8.0,-999,-99.99,,,-99.99,,2013-02-04 20:32:00,
2013-02-04 12:42:00,48.0,-99.9,30.11,WSW,244,5.0,7.0,-999,-99.99,,,-99.99,,2013-02-04 20:42:00,
2013-02-04 12:52:00,48.0,-99.9,30.10,West,266,3.0,5.0,-999,-99.99,,,-99.99,,2013-02-04 20:52:00,
2013-02-04 13:03:00,48.0,-99.9,30.11,WSW,245,5.0,8.0,-999,-99.99,,,-99.99,,2013-02-04 21:03:00,
2013-02-04 13:12:00,48.0,-99.9,30.10,WSW,257,5.0,6.0,-999,-99.99,,,-99.99,,2013-02-04 21:12:00,
2013-02-04 13:23:00,48.0,-99.9,30.10,WSW,257,5.0,8.0,-999,-99.99,,,-99.99,,2013-02-04 21:23:00,
2013-02-04 13:32:00,48.0,-99.9,30.10,West,272,6.0,8.0,-999,-99.99,,,-99.99,,2013-02-04 21:32:00,
2013-02-04 13:43:00,48.0,-99.9,30.09,WSW,247,5.0,9.0,-999,-99.99,,,-99.99,,2013-02-04 21:43:00,
2013-02-04 13:52:00,48.0,-99.9,30.09,West,259,5.0,7.0,-999,-99.99,,,-99.99,,2013-02-04 21:52:00,
2013-02-04 14:03:00,48.0,-99.9,30.08,West,277,6.0,8.0,-999,-99.99,,,-99.99,,2013-02-04 22:03:00,
2013-02-04 14:12:00,48.0,-99.9,30.08,WSW,248,4.0,8.0,-999,-99.99,,,-99.99,,2013-02-04 22:12:00,
2013-02-04 14:22:00,48.0,-99.9,30.08,West,266,4.0,8.0,-999,-99.99,,,-99.99,,2013-02-04 22:22:00,
2013-02-04 14:33:00,48.0,-99.9,30.08,WSW,237,5.0,8.0,-999,-99.99,,,-99.99,,2013-02-04 22:33:00,
2013-02-04 14:42:00,48.0,-99.9,30.07,WSW,244,8.0,10.0,-999,-99.99,,,-99.99,,2013-02-04 22:42:00,
2013-02-04 14:52:00,48.0,-99.9,30.07,SW,236,6.0,11.0,-999,-99.99,,,-99.99,,2013-02-04 22:52:00,
2013-02-04 15:02:00,48.0,-99.9,30.06,SW,228,9.0,12.0,-999,-99.99,,,-99.99,,2013-02-04 23:02:00,
2013-02-04 15:11:00,47.0,-99.9,30.06,SSW,210,9.0,13.0,-999,-99.99,,,-99.99,,2013-02-04 23:11:00,
2013-02-04 15:22:00,47.0,-99.9,30.07,SSW,208,11.0,13.0,-999,-99.99,,,-99.99,,2013-02-04 23:22:00,
2013-02-04 15:32:00,47.0,-99.9,30.06,SSW,194,9.0,15.0,-999,-99.99,,,-99.99,,2013-02-04 23:32:00,
2013-02-04 15:42:00,47.0,-99.9,30.06,SSW,209,8.0,11.0,-999,-99.99,,,-99.99,,2013-02-04 23:42:00,
2013-02-04 15:53:00,47.0,-99.9,30.06,South,191,9.0,12.0,-999,-99.99,,,-99.99,,2013-02-04 23:53:00,
2013-02-04 16:02:00,47.0,-99.9,30.07,South,188,9.0,14.0,-999,-99.99,,,-99.99,,2013-02-05 00:02:00,
2013-02-04 16:12:00,47.0,-99.9,30.07,SSW,200,8.0,13.0,-999,-99.99,,,-99.99,,2013-02-05 00:12:00,
2013-02-04 16:22:00,47.0,-99.9,30.07,SSW,194,7.0,10.0,-999,-99.99,,,-99.99,,2013-02-05 00:22:00,
2013-02-04 16:32:00,47.0,-99.9,30.07,SSW,199,3.0,9.0,-999,-99.99,,,-99.99,,2013-02-05 00:32:00,
2013-02-04 16:42:00,48.0,-99.9,30.07,SW,216,5.0,8.0,-999,-99.99,,,-99.99,,2013-02-05 00:42:00,
2013-02-04 16:52:00,48.0,-99.9,30.07,SW,222,4.0,8.0,-999,-99.99,,,-99.99,,2013-02-05 00:52:00,
2013-02-04 17:02:00,48.0,-99.9,30.06,SSW,193,6.0,8.0,-999,-99.99,,,-99.99,,2013-02-05 01:02:00,
2013-02-04 17:12:00,48.0,-99.9,30.06,SSW,207,5.0,7.0,-999,-99.99,,,-99.99,,2013-02-05 01:12:00,
2013-02-04 17:22:00,48.0,-99.9,30.05,South,170,4.0,7.0,-999,-99.99,,,-99.99,,2013-02-05 01:22:00,
2013-02-04 17:33:00,47.0,-99.9,30.04,South,177,6.0,8.0,-999,-99.99,,,-99.99,,2013-02-05 01:33:00,
2013-02-04 17:42:00,47.0,-99.9,30.04,South,169,5.0,8.0,-999,-99.99,,,-99.99,,2013-02-05 01:42:00,
2013-02-04 17:52:00,47.0,-99.9,30.03,SSE,149,5.0,7.0,-999,-99.99,,,-99.99,,2013-02-05 01:52:00,
2013-02-04 18:02:00,47.0,-99.9,30.02,SSE,153,6.0,9.0,-999,-99.99,,,-99.99,,2013-02-05 02:02:00,
2013-02-04 18:11:00,47.0,-99.9,30.01,SSE,151,7.0,8.0,-999,-99.99,,,-99.99,,2013-02-05 02:11:00,
2013-02-04 18:22:00,47.0,-99.9,30.01,SSE,147,8.0,10.0,-999,-99.99,,,-99.99,,2013-02-05 02:22:00,
2013-02-04 18:32:00,47.0,-99.9,30.01,SSE,158,8.0,12.0,-999,-99.99,,,-99.99,,2013-02-05 02:32:00,
2013-02-04 18:42:00,47.0,-99.9,30.01,South,169,8.0,10.0,-999,-99.99,,,-99.99,,2013-02-05 02:42:00,
2013-02-04 18:52:00,47.0,-99.9,30.00,South,172,6.0,7.0,-999,-99.99,,,-99.99,,2013-02-05 02:52:00,
2013-02-04 19:02:00,47.0,-99.9,30.00,SSE,163,4.0,5.0,-999,-99.99,,,-99.99,,2013-02-05 03:02:00,
2013-02-04 19:11:00,47.0,-99.9,30.00,SSE,147,5.0,6.0,-999,-99.99,,,-99.99,,2013-02-05 03:11:00,
2013-02-04 19:22:00,47.0,-99.9,30.00,SSE,163,3.0,7.0,-999,-99.99,,,-99.99,,2013-02-05 03:22:00,
2013-02-04 19:32:00,47.0,-99.9,30.01,SSW,195,3.0,6.0,-999,-99.99,,,-99.99,,2013-02-05 03:32:00,
2013-02-04 19:42:00,47.0,-99.9,30.01,South,172,4.0,5.0,-999,-99.99,,,-99.99,,2013-02-05 03:42:00,
2013-02-04 19:52:00,47.0,-99.9,30.01,South,185,5.0,9.0,-999,-99.99,,,-99.99,,2013-02-05 03:52:00,
2013-02-04 20:01:00,47.0,-99.9,29.99,SSE,165,9.0,12.0,-999,-99.99,,,-99.99,,2013-02-05 04:01:00,
2013-02-04 20:11:00,47.0,-99.9,29.99,SSE,157,7.0,14.0,-999,-99.99,,,-99.99,,2013-02-05 04:11:00,
2013-02-04 20:22:00,47.0,-99.9,30.00,South,186,7.0,12.0,-999,-99.99,,,-99.99,,2013-02-05 04:22:00,
2013-02-04 20:32:00,48.0,-99.9,30.01,SW,217,12.0,18.0,-999,-99.99,,,-99.99,,2013-02-05 04:32:00,
2013-02-04 20:42:00,48.0,-99.9,30.00,SSW,199,13.0,19.0,-999,-99.99,,,-99.99,,2013-02-05 04:42:00,
2013-02-04 20:52:00,48.0,-99.9,30.00,SSW,204,15.0,23.0,-999,-99.99,,,-99.99,,2013-02-05 04:52:00,
2013-02-04 21:03:00,48.0,-99.9,30.00,SSW,201,12.0,19.0,-999,-99.99,,,-99.99,,2013-02-05 05:03:00,
2013-02-04 21:12:00,48.0,-99.9,30.00,SSW,194,13.0,19.0,-999,-99.99,,,-99.99,,2013-02-05 05:12:00,
2013-02-04 21:22:00,48.0,-99.9,30.00,South,186,13.0,20.0,-999,-99.99,,,-99.99,,2013-02-05 05:22:00,
2013-02-04 21:32:00,48.0,-99.9,30.00,SSW,202,12.0,21.0,-999,-99.99,,,-99.99,,2013-02-05 05:32:00,
2013-02-04 21:42:00,48.0,-99.9,29.99,SSW,196,11.0,19.0,-999,-99.99,,,-99.99,,2013-02-05 05:42:00,
2013-02-04 21:52:00,48.0,-99.9,30.00,SSW,198,7.0,21.0,-999,-99.99,,,-99.99,,2013-02-05 05:52:00,
2013-02-04 22:02:00,47.0,-99.9,30.00,SSW,198,16.0,21.0,-999,-99.99,,,-99.99,,2013-02-05 06:02:00,
2013-02-04 22:11:00,47.0,-99.9,29.99,SSW,200,11.0,19.0,-999,-99.99,,,-99.99,,2013-02-05 06:11:00,
2013-02-04 22:22:00,47.0,-99.9,30.00,SSW,208,15.0,21.0,-999,-99.99,,,-99.99,,2013-02-05 06:22:00,
2013-02-04 22:32:00,48.0,-99.9,30.00,SSW,211,10.0,17.0,-999,-99.99,,,-99.99,,2013-02-05 06:32:00,
2013-02-04 22:42:00,48.0,-99.9,29.99,SSW,203,16.0,21.0,-999,-99.99,,,-99.99,,2013-02-05 06:42:00,
2013-02-04 22:52:00,48.0,-99.9,30.00,SSW,194,12.0,22.0,-999,-99.99,,,-99.99,,2013-02-05 06:52:00,
2013-02-04 23:01:00,48.0,-99.9,30.00,SSW,213,11.0,20.0,-999,-99.99,,,-99.99,,2013-02-05 07:01:00,
2013-02-04 23:11:00,48.0,-99.9,30.00,SW,219,14.0,21.0,-999,-99.99,,,-99.99,,2013-02-05 07:11:00,
2013-02-04 23:22:00,48.0,-99.9,30.00,SSW,199,10.0,21.0,-999,-99.99,,,-99.99,,2013-02-05 07:22:00,
2013-02-04 23:32:00,48.0,-99.9,30.00,SSW,202,15.0,24.0,-999,-99.99,,,-99.99,,2013-02-05 07:32:00,
2013-02-04 23:42:00,48.0,-99.9,29.99,SSW,196,9.0,18.0,-999,-99.99,,,-99.99,,2013-02-05 07:42:00,
2013-02-04 23:52:00,47.0,-99.9,30.00,SSW,195,11.0,23.0,-999,-99.99,,,-99.99,,2013-02-05 07:52:00,